Location: Unspecified
(0.0000°N, 0.0000°E)
Time: 10:23:25
(UTC+00:00)

Vanguard 2 Rocket - Visible Passes

Search period start: 01 October 2016 00:00
Search period end: 11 October 2016 00:00
Orbit: 556 x 3327 km, 32.9° (Epoch: 29 September)

Date Brightness Start Highest point End Pass type
(mag) Time Alt. Az. Time Alt. Az. Time Alt. Az.
01 Oct 10.4 00:52:18 27° E 00:52:18 27° E 00:59:02 10° E visible
01 Oct 9.2 02:58:11 73° WSW 03:00:54 84° NW 03:16:13 10° NE visible
01 Oct 9.6 05:04:05 12° W 05:18:11 33° NW 05:28:41 10° NNE visible
01 Oct 10.5 21:09:54 10° SSW 21:16:31 15° SSE 21:16:31 15° SSE visible
01 Oct10.923:57:03E23:57:03E23:22:19SSWvisible
02 Oct 9.5 02:02:56 65° E 02:02:56 65° E 02:16:06 10° ENE visible
02 Oct 9.4 04:08:49 33° W 04:17:10 48° NW 04:30:07 10° NNE visible
02 Oct 10.5 20:12:30 10° S 20:14:53 11° SSE 20:17:28 10° SSE visible
02 Oct 10.6 22:23:29 10° SSW 22:26:05 15° SSW 22:26:05 15° SSW visible
03 Oct 10.3 01:07:36 33° E 01:07:36 33° E 01:15:09 10° ENE visible
03 Oct 9.3 03:13:29 61° WNW 03:15:44 64° NW 03:30:56 10° NE visible
03 Oct 9.9 05:20:52 10° W 05:33:26 23° NW 05:42:39 10° NNE visible
03 Oct 10.4 21:24:32 10° SSW 21:29:50 17° S 21:29:50 17° S visible
04 Oct 10.9 00:12:11 12° E 00:12:11 12° E 00:13:08 10° ENE visible
04 Oct 9.4 02:18:03 65° NE 02:18:03 65° NE 02:31:08 10° NE visible
04 Oct 9.7 04:23:56 25° WNW 04:32:10 34° NW 04:44:21 10° NNE visible
04 Oct 10.4 20:26:41 10° S 20:31:55 13° SSE 20:33:36 12° SSE visible
04 Oct 10.6 22:37:47 10° SSW 22:39:23 14° SSW 22:39:23 14° SSW visible
05 Oct 10.1 01:22:34 37° ENE 01:22:34 37° ENE 01:30:35 10° ENE visible
05 Oct 9.5 03:28:26 46° NW 03:30:37 48° NW 03:45:22 10° NE visible
05 Oct 10.3 21:38:45 10° SSW 21:43:09 19° S 21:43:09 19° S visible
06 Oct 10.8 00:26:59 16° ENE 00:26:59 16° ENE 00:29:10 10° ENE visible
06 Oct 9.6 02:32:51 56° N 02:32:51 56° N 02:45:47 10° NE visible
06 Oct 10.0 04:38:42 17° WNW 04:47:38 25° NNW 04:58:27 10° NNE visible
06 Oct 10.3 20:40:32 10° S 20:46:55 17° SSE 20:46:55 17° SSE visible
06 Oct 10.7 22:52:04 10° SW 23:31:20 - ENE 22:52:43 12° SSW visible
07 Oct 10.1 01:37:12 38° NE 01:37:12 38° NE 01:45:33 10° NE visible
07 Oct 9.8 03:43:02 34° NW 03:45:49 35° NW 03:59:38 10° NNE visible
07 Oct 10.3 19:45:19 10° SSE 19:46:49 10° SSE 19:48:24 10° SSE visible
07 Oct 10.3 21:52:55 10° SSW 21:56:30 20° SSW 21:56:30 20° SSW visible
08 Oct 10.7 00:41:27 18° ENE 00:41:27 18° ENE 00:44:33 10° ENE visible
08 Oct 9.8 02:47:18 44° NNW 02:47:18 44° NNW 03:00:12 10° NE visible
08 Oct 10.3 04:53:09 11° WNW 05:03:42 18° NNW 05:12:32 10° NNE visible
08 Oct 10.1 20:54:25 10° SSW 21:00:18 22° SSE 21:00:18 22° SSE visible
08 Oct10.823:45:40ENE23:45:40ENE23:06:07SWvisible
09 Oct 10.1 01:51:30 36° NNE 01:51:30 36° NNE 02:00:09 10° NE visible
09 Oct 10.1 03:57:21 24° NW 04:01:31 26° NNW 04:13:52 10° NNE visible
09 Oct 10.1 19:56:57 10° S 20:03:05 15° SSE 20:04:08 15° SE visible
09 Oct 10.3 22:07:09 10° SW 22:09:57 20° SSW 22:09:57 20° SSW visible
10 Oct 10.7 00:55:38 20° NE 00:55:38 20° NE 00:59:27 10° NE visible
10 Oct 10.0 03:01:28 34° NNW 03:01:28 34° NNW 03:14:29 10° NNE visible
10 Oct 10.4 05:12:42 10° NW 05:20:25 14° NNW 05:26:55 10° N visible
10 Oct 9.9 21:08:25 10° SSW 21:13:48 26° S 21:13:48 26° S visible
